Strona główna
METAR-TAF:

METAR-TAF

Lotnisko :

Platforma wiertnicza

L9-ff-1, Holandia

Szerokość geograficzna: 53-36-52N, Długość geograficzna: 4-57-37E, wysokość: 30 m

Aktualna obserwacja pogody

Raport powstał 15 minut temu, godzina 23:55 UTC
Wiatr 13 kt od północno-północny wschód
Temperatura 7°C
Wilgotność 93%
Ciśnienie 1024 hPa
Widzialność 10 km lub więcej

METAR: EHMG 182355Z AUTO 03013KT 9999 NCD 07/06 Q1024

czas: 02:10 (00:10 UTC)


TAF: brakujący

Obserwacja i prognoza pogody dla ponad 4000 lotnisk (raport METAR i TAF).

Dostępne stacje oznaczono żółtymi i czerwonymi punktami na mapie.

Najedź kursorem aby zobaczyć nazwę stacji.

Kliknij aby zobaczyć obserwacje i prognozy pogody.

Aby zmienić mapę: kliknij na zielony przycisk z czarnym krzyżykiem, aby powiększyć; na zielony przycisk z myślnikiem, aby pomniejszyć; na zielone strzałki, aby przejść do map sąsiednich.


METAR-TAF: